�������l�o���
Date,Time,MP-1(��Sv/h),MP-2(��Sv/h),MP-3(��Sv/h),MP-4(��Sv/h),MP-5(��Sv/h),MP-6(��Sv/h),MP-7(��Sv/h),MP-8(��Sv/h),����,����(m/s),���J
2021/01/06,00:00,0.666,0.949,0.604,1.199,0.844,0.375,0.671,0.633,�k�k��,8.8,��
2021/01/06,00:10,0.664,0.951,0.606,1.198,0.846,0.376,0.671,0.632,�k�k��,8.4,��
2021/01/06,00:20,0.665,0.949,0.604,1.197,0.844,0.375,0.669,0.633,�k�k��,9.2,��
2021/01/06,00:30,0.664,0.949,0.605,1.199,0.845,0.374,0.671,0.632,�k�k��,9.8,��
2021/01/06,00:40,0.665,0.949,0.604,1.197,0.843,0.375,0.671,0.632,�k,9.4,��
2021/01/06,00:50,0.663,0.948,0.605,1.199,0.843,0.375,0.671,0.633,�k�k��,10.2,��
2021/01/06,01:00,0.664,0.949,0.605,1.198,0.844,0.374,0.671,0.633,�k�k��,9.3,��
2021/01/06,01:10,0.664,0.946,0.605,1.199,0.843,0.375,0.671,0.632,�k�k��,10.6,��
2021/01/06,01:20,0.665,0.946,0.604,1.196,0.843,0.377,0.670,0.631,�k�k��,8.9,��
2021/01/06,01:30,0.664,0.946,0.604,1.197,0.843,0.376,0.671,0.633,�k�k��,10.0,��
2021/01/06,01:40,0.665,0.948,0.603,1.199,0.843,0.376,0.672,0.632,�k,9.8,��
2021/01/06,01:50,0.664,0.946,0.606,1.199,0.845,0.375,0.672,0.631,�k�k��,9.8,��
2021/01/06,02:00,0.664,0.951,0.607,1.198,0.847,0.376,0.671,0.632,�k�k��,9.6,��
2021/01/06,02:10,0.664,0.950,0.607,1.197,0.846,0.377,0.670,0.631,�k�k��,10.6,��
2021/01/06,02:20,0.664,0.951,0.605,1.199,0.845,0.378,0.671,0.632,�k�k��,9.7,��
2021/01/06,02:30,0.662,0.950,0.606,1.198,0.844,0.378,0.670,0.632,�k�k��,9.7,��
2021/01/06,02:40,0.664,0.950,0.606,1.199,0.846,0.378,0.672,0.632,�k�k��,8.1,��
2021/01/06,02:50,0.665,0.949,0.607,1.200,0.844,0.376,0.672,0.632,�k�k��,10.3,��
2021/01/06,03:00,0.664,0.949,0.607,1.203,0.845,0.377,0.671,0.631,�k�k��,11.1,��
2021/01/06,03:10,0.664,0.949,0.605,1.200,0.844,0.378,0.670,0.632,�k�k��,10.4,��
2021/01/06,03:20,0.662,0.952,0.607,1.199,0.844,0.377,0.670,0.632,�k�k��,11.0,��
2021/01/06,03:30,0.665,0.951,0.605,1.198,0.844,0.377,0.671,0.633,�k�k��,10.2,��
2021/01/06,03:40,0.665,0.950,0.605,1.200,0.844,0.377,0.670,0.632,�k�k��,11.3,��
2021/01/06,03:50,0.664,0.950,0.605,1.198,0.847,0.376,0.671,0.632,�k�k��,12.7,��
2021/01/06,04:00,0.663,0.946,0.604,1.196,0.845,0.376,0.672,0.632,�k�k��,11.9,��
2021/01/06,04:10,0.664,0.948,0.605,1.199,0.844,0.375,0.670,0.634,�k�k��,10.2,��
2021/01/06,04:20,0.662,0.947,0.604,1.198,0.842,0.376,0.668,0.632,�k�k��,10.3,��
2021/01/06,04:30,0.662,0.948,0.603,1.198,0.843,0.376,0.668,0.631,�k�k��,9.4,��
2021/01/06,04:40,0.663,0.948,0.605,1.198,0.842,0.375,0.669,0.633,�k�k��,9.1,��
2021/01/06,04:50,0.661,0.949,0.605,1.195,0.841,0.377,0.669,0.631,�k�k��,10.2,��
2021/01/06,05:00,0.665,0.949,0.604,1.200,0.843,0.377,0.670,0.633,�k�k��,9.8,��
2021/01/06,05:10,0.662,0.950,0.605,1.197,0.845,0.377,0.670,0.631,�k�k��,9.2,��
2021/01/06,05:20,0.664,0.949,0.605,1.201,0.844,0.377,0.671,0.632,�k�k��,8.9,��
2021/01/06,05:30,0.663,0.951,0.605,1.199,0.847,0.375,0.669,0.633,�k�k��,8.5,��
2021/01/06,05:40,0.664,0.950,0.607,1.200,0.845,0.377,0.671,0.632,�k�k��,8.8,��
2021/01/06,05:50,0.661,0.952,0.606,1.198,0.845,0.377,0.670,0.632,�k�k��,10.0,��
2021/01/06,06:00,0.663,0.951,0.605,1.200,0.846,0.376,0.670,0.631,�k�k��,9.3,��
2021/01/06,06:10,0.663,0.949,0.605,1.198,0.846,0.377,0.670,0.632,�k�k��,8.2,��
2021/01/06,06:20,0.664,0.952,0.607,1.200,0.844,0.378,0.672,0.632,�k�k��,9.3,��
2021/01/06,06:30,0.663,0.950,0.607,1.199,0.845,0.377,0.670,0.633,�k�k��,8.0,��
2021/01/06,06:40,0.663,0.952,0.606,1.197,0.844,0.376,0.671,0.632,�k�k��,9.1,��
2021/01/06,06:50,0.666,0.951,0.607,1.199,0.844,0.378,0.669,0.633,�k�k��,8.7,��
2021/01/06,07:00,0.662,0.950,0.605,1.199,0.845,0.377,0.673,0.633,�k�k��,7.9,��
2021/01/06,07:10,0.662,0.952,0.606,1.200,0.846,0.378,0.669,0.633,�k�k��,8.7,��
2021/01/06,07:20,0.663,0.952,0.605,1.199,0.844,0.377,0.670,0.632,�k�k��,8.3,��
2021/01/06,07:30,0.664,0.951,0.607,1.198,0.843,0.376,0.671,0.632,�k�k��,8.4,��
2021/01/06,07:40,0.664,0.950,0.606,1.199,0.844,0.378,0.671,0.633,�k�k��,9.3,��
2021/01/06,07:50,0.663,0.950,0.606,1.199,0.845,0.375,0.670,0.633,�k�k��,8.5,��
2021/01/06,08:00,0.665,0.950,0.606,1.200,0.844,0.377,0.670,0.631,�k�k��,7.6,��
2021/01/06,08:10,0.664,0.953,0.606,1.200,0.842,0.377,0.671,0.632,�k�k��,7.6,��
2021/01/06,08:20,0.664,0.950,0.607,1.200,0.844,0.377,0.671,0.634,�k�k��,7.8,��
2021/01/06,08:30,0.667,0.950,0.605,1.199,0.846,0.377,0.672,0.632,�k�k��,7.3,��
2021/01/06,08:40,0.662,0.950,0.607,1.199,0.845,0.378,0.670,0.632,�k�k��,7.3,��
2021/01/06,08:50,0.663,0.948,0.606,1.197,0.845,0.377,0.669,0.633,�k�k��,7.4,��
2021/01/06,09:00,0.665,0.948,0.604,1.197,0.844,0.378,0.672,0.632,�k�k��,7.6,��
2021/01/06,09:10,0.666,0.945,0.608,1.200,0.845,0.376,0.671,0.632,�k�k��,5.2,��
2021/01/06,09:20,0.665,0.948,0.608,1.199,0.844,0.378,0.674,0.632,�k�k��,7.0,��
2021/01/06,09:30,0.666,0.947,0.605,1.201,0.845,0.378,0.672,0.633,�k�k��,6.2,��
2021/01/06,09:40,0.665,0.947,0.605,1.199,0.844,0.377,0.671,0.634,�k�k��,6.4,��
2021/01/06,09:50,0.664,0.946,0.606,1.198,0.845,0.376,0.673,0.632,�k�k��,6.6,��
2021/01/06,10:00,0.665,0.947,0.606,1.201,0.846,0.376,0.670,0.632,�k�k��,7.0,��
2021/01/06,10:10,0.666,0.946,0.607,1.199,0.847,0.376,0.671,0.632,�k�k��,7.0,��
2021/01/06,10:20,0.661,0.947,0.607,1.200,0.846,0.375,0.672,0.632,�k�k��,6.7,��
2021/01/06,10:30,0.661,0.946,0.608,1.201,0.846,0.375,0.673,0.633,�k�k��,8.1,��
2021/01/06,10:40,0.661,0.951,0.607,1.200,0.847,0.378,0.670,0.633,�k�k��,7.9,��
2021/01/06,10:50,0.661,0.949,0.607,1.199,0.848,0.377,0.671,0.633,�k�k��,8.3,��
2021/01/06,11:00,0.663,0.952,0.607,1.200,0.845,0.378,0.674,0.633,�k�k��,7.5,��
2021/01/06,11:10,0.665,0.948,0.607,1.200,0.848,0.378,0.671,0.633,�k�k��,7.5,��
2021/01/06,11:20,0.666,0.948,0.609,1.199,0.847,0.378,0.670,0.633,�k�k��,7.2,��
2021/01/06,11:30,0.665,0.949,0.608,1.201,0.847,0.377,0.673,0.632,�k�k��,6.9,��
2021/01/06,11:40,0.666,0.950,0.609,1.201,0.847,0.379,0.673,0.633,�k�k��,7.2,��
2021/01/06,11:50,0.666,0.950,0.606,1.201,0.847,0.378,0.671,0.634,�k�k��,7.3,��
2021/01/06,12:00,0.665,0.950,0.610,1.199,0.845,0.378,0.672,0.632,�k�k��,5.7,��
2021/01/06,12:10,0.666,0.949,0.608,1.198,0.848,0.377,0.674,0.632,�k�k��,6.4,��
2021/01/06,12:20,0.665,0.947,0.609,1.201,0.848,0.377,0.673,0.634,�k�k��,7.2,��
2021/01/06,12:30,0.666,0.943,0.606,1.200,0.849,0.377,0.671,0.631,�k,6.6,��
2021/01/06,12:40,0.666,0.942,0.609,1.202,0.848,0.379,0.672,0.633,�k,5.5,��
2021/01/06,12:50,0.667,0.948,0.608,1.204,0.846,0.379,0.671,0.633,�k,5.7,��
2021/01/06,13:00,0.666,0.946,0.609,1.203,0.849,0.378,0.672,0.633,�k,5.8,��
2021/01/06,13:10,0.666,0.949,0.609,1.202,0.850,0.378,0.673,0.632,�k,6.0,��
2021/01/06,13:20,0.667,0.951,0.608,1.201,0.849,0.379,0.672,0.632,�k�k��,6.9,��
2021/01/06,13:30,0.668,0.950,0.609,1.203,0.846,0.378,0.673,0.633,�k�k��,7.7,��
2021/01/06,13:40,0.667,0.949,0.610,1.202,0.849,0.378,0.672,0.633,�k,7.0,��
2021/01/06,13:50,0.665,0.951,0.609,1.202,0.848,0.378,0.673,0.632,�k,6.3,��
2021/01/06,14:00,0.667,0.950,0.607,1.203,0.849,0.379,0.673,0.633,�k,7.8,��
2021/01/06,14:10,0.667,0.949,0.608,1.202,0.846,0.379,0.672,0.634,�k,5.5,��
2021/01/06,14:20,0.664,0.945,0.609,1.200,0.849,0.378,0.675,0.633,�k,6.1,��
2021/01/06,14:30,0.666,0.949,0.608,1.202,0.850,0.379,0.672,0.632,�k,6.2,��
2021/01/06,14:40,0.668,0.951,0.608,1.203,0.848,0.377,0.671,0.634,�k,7.1,��
2021/01/06,14:50,0.666,0.951,0.609,1.203,0.849,0.378,0.671,0.633,�k,5.6,��
2021/01/06,15:00,0.666,0.951,0.610,1.202,0.849,0.378,0.672,0.632,�k,6.2,��
2021/01/06,15:10,0.668,0.953,0.608,1.205,0.848,0.378,0.674,0.634,�k,4.7,��
2021/01/06,15:20,0.666,0.951,0.608,1.203,0.848,0.379,0.672,0.633,�k,5.0,��
2021/01/06,15:30,0.667,0.952,0.610,1.203,0.848,0.377,0.674,0.634,�k,4.9,��
2021/01/06,15:40,0.669,0.955,0.608,1.202,0.848,0.378,0.673,0.634,�k,5.4,��
2021/01/06,15:50,0.666,0.953,0.608,1.202,0.849,0.378,0.672,0.632,�k,3.5,��
2021/01/06,16:00,0.666,0.951,0.609,1.201,0.848,0.378,0.673,0.631,�k�k��,4.7,��
2021/01/06,16:10,0.666,0.949,0.609,1.203,0.849,0.378,0.673,0.632,�k,3.9,��
2021/01/06,16:20,0.666,0.954,0.609,1.203,0.849,0.378,0.672,0.633,�k�k��,4.0,��
2021/01/06,16:30,0.666,0.953,0.607,1.202,0.849,0.378,0.671,0.632,�k�k��,3.9,��
2021/01/06,16:40,0.664,0.952,0.607,1.204,0.848,0.378,0.672,0.634,�k�k��,3.5,��
2021/01/06,16:50,0.665,0.954,0.607,1.201,0.847,0.378,0.671,0.632,�k��,3.8,��
2021/01/06,17:00,0.665,0.952,0.607,1.201,0.846,0.378,0.671,0.632,�k��,3.7,��
2021/01/06,17:10,0.665,0.952,0.610,1.201,0.847,0.377,0.670,0.633,�k��,3.4,��
2021/01/06,17:20,0.664,0.952,0.607,1.201,0.846,0.379,0.670,0.633,�k��,3.8,��
2021/01/06,17:30,0.665,0.953,0.606,1.203,0.847,0.378,0.669,0.633,�k��,3.6,��
2021/01/06,17:40,0.665,0.952,0.607,1.201,0.846,0.378,0.673,0.632,�k��,3.2,��
2021/01/06,17:50,0.666,0.952,0.606,1.202,0.849,0.379,0.672,0.633,�k��,3.9,��
2021/01/06,18:00,0.664,0.952,0.608,1.199,0.848,0.379,0.670,0.632,�k��,3.3,��
2021/01/06,18:10,0.665,0.952,0.607,1.201,0.848,0.377,0.671,0.633,�k��,3.3,��
2021/01/06,18:20,0.665,0.952,0.607,1.202,0.846,0.378,0.672,0.633,�k��,4.0,��
2021/01/06,18:30,0.664,0.951,0.606,1.201,0.847,0.377,0.670,0.634,�k��,3.6,��
2021/01/06,18:40,0.665,0.952,0.606,1.205,0.848,0.378,0.671,0.631,���k��,3.3,��
2021/01/06,18:50,0.664,0.950,0.608,1.200,0.848,0.377,0.671,0.633,���k��,3.1,��
2021/01/06,19:00,0.666,0.952,0.607,1.204,0.848,0.377,0.671,0.632,�k��,3.2,��
2021/01/06,19:10,0.666,0.951,0.607,1.202,0.847,0.376,0.672,0.633,�k��,3.4,��
2021/01/06,19:20,0.664,0.952,0.605,1.202,0.848,0.377,0.672,0.633,���k��,2.8,��
2021/01/06,19:30,0.665,0.950,0.605,1.200,0.850,0.378,0.670,0.631,���k��,2.3,��
2021/01/06,19:40,0.666,0.952,0.607,1.204,0.845,0.378,0.670,0.632,��,2.0,��
2021/01/06,19:50,0.664,0.951,0.608,1.202,0.846,0.378,0.669,0.633,���k��,2.0,��
2021/01/06,20:00,0.666,0.951,0.607,1.204,0.848,0.378,0.672,0.632,��,2.0,��
2021/01/06,20:10,0.668,0.951,0.606,1.203,0.847,0.378,0.671,0.633,���쐼,2.0,��
2021/01/06,20:20,0.664,0.952,0.606,1.202,0.847,0.377,0.671,0.631,���쐼,2.0,��
2021/01/06,20:30,0.667,0.952,0.606,1.201,0.847,0.379,0.670,0.633,���쐼,1.7,��
2021/01/06,20:40,0.668,0.952,0.608,1.203,0.849,0.378,0.670,0.632,���쐼,2.8,��
2021/01/06,20:50,0.666,0.954,0.608,1.203,0.848,0.378,0.671,0.633,���쐼,2.6,��
2021/01/06,21:00,0.665,0.950,0.608,1.202,0.846,0.379,0.670,0.633,�쐼,2.6,��
2021/01/06,21:10,0.667,0.951,0.608,1.201,0.847,0.378,0.671,0.633,�쐼,2.9,��
2021/01/06,21:20,0.669,0.952,0.609,1.201,0.848,0.379,0.671,0.633,�쐼,3.1,��
2021/01/06,21:30,0.667,0.951,0.608,1.203,0.848,0.379,0.671,0.632,�쐼,3.0,��
2021/01/06,21:40,0.669,0.953,0.607,1.204,0.847,0.379,0.670,0.632,�쐼,2.5,��
2021/01/06,21:50,0.665,0.953,0.607,1.205,0.847,0.377,0.672,0.633,�쐼,3.1,��
2021/01/06,22:00,0.668,0.953,0.607,1.202,0.848,0.379,0.670,0.634,�쐼,3.4,��
2021/01/06,22:10,0.668,0.951,0.609,1.203,0.846,0.378,0.672,0.633,�쐼,3.2,��
2021/01/06,22:20,0.669,0.952,0.608,1.203,0.846,0.378,0.671,0.633,�쐼,3.0,��
2021/01/06,22:30,0.668,0.953,0.608,1.204,0.846,0.379,0.672,0.632,��쐼,3.0,��
2021/01/06,22:40,0.667,0.953,0.609,1.203,0.848,0.379,0.672,0.634,��쐼,3.6,�L
2021/01/06,22:50,0.668,0.950,0.607,1.204,0.846,0.378,0.672,0.633,��쐼,2.8,��
2021/01/06,23:00,0.666,0.952,0.608,1.203,0.848,0.378,0.673,0.633,��쐼,2.6,��
2021/01/06,23:10,0.669,0.950,0.609,1.204,0.847,0.379,0.673,0.634,�쐼,3.1,��
2021/01/06,23:20,0.670,0.951,0.607,1.201,0.849,0.379,0.672,0.634,���쐼,3.0,��
2021/01/06,23:30,0.668,0.951,0.608,1.201,0.848,0.380,0.673,0.633,�쐼,3.7,��
2021/01/06,23:40,0.667,0.953,0.608,1.203,0.847,0.379,0.672,0.633,���쐼,4.6,��
2021/01/06,23:50,0.670,0.951,0.608,1.201,0.848,0.379,0.671,0.632,���쐼,4.5,��
